Regional Weather Roundup
Issued by NWS Upton, NY

Current Version | Previous Version | Text Only | Print | Product List | Glossary On
Versions: 1 2 3 4 5 6 7 8 9 10 11 12 13 14 15 16 17 18 19 20 21 22 23 24 25 26 27 28 29 30 31 32 33 34 35 36 37 38 39 40 41 42 43 44 45 46 47 48 49 50
000
ASUS41 KOKX 061208
RWROKX

REGIONAL WEATHER ROUNDUP
NATIONAL WEATHER SERVICE NEW YORK NY
800 AM EDT WED MAY 06 2015

NOTE: "FAIR" INDICATES FEW OR NO CLOUDS BELOW 12,000 FEET WITH NO
SIGNIFICANT WEATHER AND/OR OBSTRUCTIONS TO VISIBILITY.

NYZ071-072-176-178-NJZ106-104-061300-
NEW YORK CITY METRO AREA


CITY           SKY/WX    TMP DP  RH WIND       PRES   REMARKS
CENTRAL PARK   CLOUDY    66  40  38 NE13G22   30.30R
LAGUARDIA APRT CLOUDY    59  50  72 NE10      30.27R
KENNEDY INTL   LGT RAIN  63  47  55 NE13      30.27R
NEWARK/LIBERTY LGT RAIN  66  42  41 NE14      30.27R
BRNX BOT. GARD   N/A     61  48  63 NE2       30.29R
TETERBORO      LGT RAIN  63  46  54 NE6       30.27R
$$

NYZ177-179-078>081-061300-
LONG ISLAND NEW YORK

CITY           SKY/WX    TMP DP  RH WIND       PRES   REMARKS
FARMINGDALE    CLOUDY    62  44  51 N9        30.28R
ISLIP          CLOUDY    62  46  55 N9        30.26R
SHIRLEY        CLOUDY    60  51  72 VRB5      30.26R
WESTHAMPTON    CLOUDY    59  50  72 NE9       30.27R
MONTAUK POINT    N/A     55  49  80 NE6       30.28R
$$

NYZ052-065-067-061300-
HUDSON VALLEY

CITY           SKY/WX    TMP DP  RH WIND       PRES   REMARKS
WHITE PLAINS   CLOUDY    60  42  51 N6        30.29R
NEWBURGH       CLOUDY    59  48  67 N7        30.33R
MONTGOMERY     CLOUDY    59  46  62 NE5       30.31R
POUGHKEEPSIE   LGT RAIN  57  49  74 S3        30.30R
ALBANY         PTSUNNY   59  41  51 N3        30.32R
$$

NJZ001-105-106-008-010-013-015-019>022-104-061300-
NEW JERSEY

CITY           SKY/WX    TMP DP  RH WIND       PRES   REMARKS
NEWARK/LIBERTY LGT RAIN  66  42  41 NE14      30.27R
TETERBORO      LGT RAIN  63  46  54 NE6       30.27R
CALDWELL       CLOUDY    62  46  55 NE5       30.29R
MORRISTOWN     CLOUDY    63  45  51 NE6       30.28R
SOMERVILLE     LGT RAIN  64  47  53 VRB5      30.26R
SUSSEX         LGT RAIN  58  47  66 N9        30.32R
ANDOVER          N/A     58  51  78 CALM      30.30R
TRENTON        CLOUDY    67  44  43 N7        30.26R
MILLVILLE      SUNNY     66  63  90 CALM      30.24R
ATLANTIC CITY  SUNNY     68  63  84 CALM      30.24R HAZE
WRIGHTSTOWN    PTSUNNY   68  46  44 NE9       30.22R
TOMS RIVER     CLOUDY    64  52  63 N3        30.25R
BELMAR         CLOUDY    66  41  39 N9        30.25R
$$

PAZ047>061-062-071-061300-
EASTERN PENNSYLVANIA

CITY           SKY/WX    TMP DP  RH WIND       PRES   REMARKS
PHILADELPHIA   PTSUNNY   69  54  58 E6        30.25R
ALLENTOWN      LGT RAIN  59  51  75 NE5       30.28R
SCRANTON       RAIN      54  50  86 NE6       30.31R FOG
$$

CTZ002-004>006-009-010-012-RIZ004-006-007-MAZ004-011-015-061300-
SOUTHERN NEW ENGLAND
 IN CT

CITY           SKY/WX    TMP DP  RH WIND       PRES   REMARKS
BRADLEY INTL   CLOUDY    62  37  39 N8        30.29R
HARTFORD       CLOUDY    60  38  43 N9        30.29R
DANBURY        LGT RAIN  60  38  43 NE3       30.30R
WTRBRY/OXFORD  CLOUDY    59  34  38 NE9       30.31R
BRIDGEPORT     LGT RAIN  63  38  39 N9        30.27R
MERIDEN        CLOUDY    62  35  36 NE6       30.29R
NEW HAVEN      LGT RAIN  59  42  53 N14       30.27R
CHESTER        DRIZZLE   61  39  44 N5        30.29R
GROTON         LGT RAIN  59  48  67 CALM      30.27R
WILLIMANTIC    CLOUDY    64  34  32 NE8       30.28R

 IN RI

CITY           SKY/WX    TMP DP  RH WIND       PRES   REMARKS
PROVIDENCE     CLOUDY    62  41  46 NE10      30.29R
BLOCK ISLAND   CLOUDY    54  48  82 NE8       30.27R
WESTERLY       CLOUDY    62  40  44 NE5       30.28R

 IN MA

CITY           SKY/WX    TMP DP  RH WIND       PRES   REMARKS
BOSTON         CLOUDY    62  40  44 N6        30.30R
WORCESTER      CLOUDY    59  29  31 NE7       30.30R
WESTFIELD      CLOUDY    58  41  53 NW5       30.30R
PROVINCETOWN   CLOUDY    55  48  76 NE7       30.29S
NANTUCKET      CLOUDY    58  47  66 NE14      30.27R
$$

ANZ330-335-338-340-345-350-353-355-061300-
COASTAL MARINE OBSERVATIONS


STATION/POSITION TIME  SKY/WX   TEMP    WIND        PRES    VSBY  WAVE
                                AIR SEA DIR/SP/G                  HT/PER
                 (UTC)          (F)     (DEG/KT/KT) (MB)    (MI)  (FT/S)
NY HARB ENTRANCE 1150            57 53   10/  6/  6 1024.3          3/ 6
4S FIRE IS       1103               51                N/A           3/ 6
20S FIRE ISLAND  1150            53 49   40/ 12/ 14 1023.7          3/ 6
GREAT SOUTH BAY  1100            61 61   50/ 10/ 12   N/A
23SW MTP         1150            51 49   60/  8/ 10 1024.0          3/ 7
HUDSON CANYON    NOT AVBL
KINGS POINT      1100            54 52   10/  4/  5 1023.6
EASTERN LI SOUND 1100            49     200/  2/  4   N/A
ROBBINS REEF     1100            66     360/  9/ 11 1023.3
$$


>>>>>>>>>>>>>>>>>>>>>>>>>>>> KEY <<<<<<<<<<<<<<<<<<<<<<<<<<<
>                                                          <
>     SKY/WX - SKY CONDITION/PRESENT WEATHER               <
>     TMP    - TEMPERATURE IN FAHRENHEIT                   <
>     DP     - DEWPOINT IN FAHRENHEIT                      <
>     RH     - RELATIVE HUMIDITY IN PERCENT                <
>     WIND   - DIRECTION AND SPEED IN MPH                  <
>     PRES   - MEAN SEA LEVEL PRESSURE IN INCHES OF HG     <
>     WCI    - WIND CHILL INDEX                            <
>     VSB    - VISIBILITY IN MILES                         <
>     HX     - HEAT INDEX                                  <
>     TC     - TEMPERATURE IN CELSIUS                      <
>     VRB    - VARIABLE WIND DIRECTION                     <
>                                                          <
>>>>>>>>>>>>>>>>>>>>>>>>>>>> KEY <<<<<<<<<<<<<<<<<<<<<<<<<<<




USA.gov is the U.S. government's official web portal to all federal, state and local government web resources and services.